15-05-2022, 00:00:02,    185,    0.0,   13.3,   0.00,   0.00, 1015.1,   62.3, -999.0
15-05-2022, 00:00:12,    185,    0.0,   13.3,   0.00,   0.00, 1015.1,   62.3, -999.0
15-05-2022, 00:00:22,    185,    0.0,   13.3,   0.00,   0.00, 1015.1,   62.2, -999.0
15-05-2022, 00:00:32,    185,    0.0,   13.4,   0.00,   0.00, 1015.1,   62.2, -999.0
15-05-2022, 00:00:42,    185,    0.0,   13.4,   0.00,   0.00, 1015.1,   62.2, -999.0
15-05-2022, 00:00:52,    186,    0.0,   13.4,   0.00,   0.00, 1015.1,   62.2, -999.0
15-05-2022, 00:01:02,    185,    0.0,   13.3,   0.00,   0.00, 1015.1,   62.3, -999.0
15-05-2022, 00:01:12,    185,    0.0,   13.4,   0.00,   0.00, 1015.1,   62.3, -999.0
15-05-2022, 00:01:21,    185,    0.0,   13.4,   0.00,   0.00, 1015.1,   62.2, -999.0
15-05-2022, 00:01:32,    185,    0.0,   13.3,   0.00,   0.00, 1015.1,   62.1, -999.0
15-05-2022, 00:01:42,    186,    0.0,   13.3,   0.00,   0.00, 1015.0,   62.1, -999.0
15-05-2022, 00:01:51,    185,    0.0,   13.3,   0.00,   0.00, 1015.1,   62.1, -999.0
15-05-2022, 00:02:01,    185,    0.0,   13.3,   0.00,   0.00, 1015.1,   62.2, -999.0
15-05-2022, 00:02:12,    185,    0.0,   13.4,   0.00,   0.00, 1015.1,   62.2, -999.0
15-05-2022, 00:02:21,    185,    0.0,   13.4,   0.00,   0.00, 1015.1,   62.2, -999.0
15-05-2022, 00:02:31,    185,    0.0,   13.4,   0.00,   0.00, 1015.0,   62.2, -999.0
15-05-2022, 00:02:41,    185,    0.0,   13.4,   0.00,   0.00, 1015.1,   62.3, -999.0
15-05-2022, 00:02:51,    185,    0.0,   13.4,   0.00,   0.00, 1015.0,   62.2, -999.0
15-05-2022, 00:03:01,    185,    0.0,   13.4,   0.00,   0.00, 1015.0,   62.2, -999.0
15-05-2022, 00:03:11,    185,    0.0,   13.3,   0.00,   0.00, 1015.0,   62.3, -999.0
15-05-2022, 00:03:21,    185,    0.0,   13.4,   0.00,   0.00, 1015.1,   62.2, -999.0
15-05-2022, 00:03:31,    185,    0.0,   13.3,   0.00,   0.00, 1015.0,   62.1, -999.0
15-05-2022, 00:03:41,    186,    0.0,   13.3,   0.00,   0.00, 1015.0,   62.1, -999.0
15-05-2022, 00:03:51,    185,    0.0,   13.4,   0.00,   0.00, 1015.0,   62.1, -999.0
15-05-2022, 00:04:01,    185,    0.0,   13.3,   0.00,   0.00, 1015.0,   62.1, -999.0
15-05-2022, 00:04:11,    185,    0.0,   13.3,   0.00,   0.00, 1015.0,   61.9, -999.0
15-05-2022, 00:04:21,    186,    0.0,   13.3,   0.00,   0.00, 1015.0,   61.9, -999.0
15-05-2022, 00:04:30,    185,    0.0,   13.3,   0.00,   0.00, 1015.0,   62.1, -999.0
15-05-2022, 00:04:41,    185,    0.0,   13.2,   0.00,   0.00, 1015.0,   62.1, -999.0
15-05-2022, 00:04:51,    185,    0.0,   13.3,   0.00,   0.00, 1015.0,   62.3, -999.0
15-05-2022, 00:05:00,    185,    0.0,   13.3,   0.00,   0.00, 1015.0,   62.1, -999.0
15-05-2022, 00:05:11,    185,    0.0,   13.2,   0.00,   0.00, 1015.0,   62.1, -999.0
15-05-2022, 00:05:20,    185,    0.0,   13.2,   0.00,   0.00, 1015.0,   62.1, -999.0
15-05-2022, 00:05:30,    185,    0.0,   13.3,   0.00,   0.00, 1015.0,   62.1, -999.0
15-05-2022, 00:05:40,    185,    0.0,   13.3,   0.00,   0.00, 1015.0,   62.3, -999.0
15-05-2022, 00:05:50,    185,    0.0,   13.2,   0.00,   0.00, 1015.0,   62.0, -999.0
15-05-2022, 00:06:00,    185,    0.0,   13.2,   0.00,   0.00, 1015.0,   61.9, -999.0
15-05-2022, 00:06:10,    185,    0.0,   13.3,   0.00,   0.00, 1015.0,   61.9, -999.0
15-05-2022, 00:06:20,    185,    0.0,   13.2,   0.00,   0.00, 1015.0,   62.1, -999.0
15-05-2022, 00:06:30,    185,    0.0,   13.3,   0.00,   0.00, 1015.0,   62.2, -999.0
15-05-2022, 00:06:40,    185,    0.0,   13.3,   0.00,   0.00, 1015.0,   62.2, -999.0
15-05-2022, 00:06:50,    185,    0.0,   13.3,   0.00,   0.00, 1015.0,   62.4, -999.0
15-05-2022, 00:07:00,    185,    0.0,   13.3,   0.00,   0.00, 1015.0,   62.3, -999.0
15-05-2022, 00:07:10,    185,    0.0,   13.3,   0.00,   0.00, 1015.0,   62.3, -999.0
15-05-2022, 00:07:20,    185,    0.0,   13.3,   0.00,   0.00, 1015.0,   62.2, -999.0
15-05-2022, 00:07:30,    185,    0.0,   13.2,   0.00,   0.00, 1015.0,   62.0, -999.0
15-05-2022, 00:07:40,    185,    0.0,   13.2,   0.00,   0.00, 1015.0,   61.8, -999.0
15-05-2022, 00:07:50,    185,    0.0,   13.2,   0.00,   0.00, 1015.0,   61.8, -999.0
15-05-2022, 00:07:59,    185,    0.0,   13.2,   0.00,   0.00, 1015.0,   61.7, -999.0
15-05-2022, 00:08:09,    186,    0.0,   13.3,   0.00,   0.00, 1015.0,   61.9, -999.0
15-05-2022, 00:08:20,    185,    0.0,   13.3,   0.00,   0.00, 1015.0,   62.0, -999.0
15-05-2022, 00:08:29,    185,    0.0,   13.3,   0.00,   0.00, 1015.0,   62.2, -999.0
15-05-2022, 00:08:39,    185,    0.0,   13.3,   0.00,   0.00, 1015.0,   62.3, -999.0
15-05-2022, 00:08:49,    185,    0.0,   13.3,   0.00,   0.00, 1015.0,   62.3, -999.0
15-05-2022, 00:08:59,    185,    0.0,   13.3,   0.00,   0.00, 1015.1,   62.1, -999.0
15-05-2022, 00:09:09,    186,    0.0,   13.3,   0.00,   0.00, 1015.0,   62.0, -999.0
15-05-2022, 00:09:19,    185,    0.0,   13.3,   0.00,   0.00, 1015.1,   61.9, -999.0
15-05-2022, 00:09:29,    186,    0.0,   13.1,   0.00,   0.00, 1015.1,   61.8, -999.0
15-05-2022, 00:09:39,    185,    0.0,   13.2,   0.00,   0.00, 1015.1,   62.0, -999.0
15-05-2022, 00:09:49,    185,    0.0,   13.2,   0.00,   0.00, 1015.1,   62.0, -999.0
15-05-2022, 00:09:59,    186,    0.0,   13.2,   0.00,   0.00, 1015.1,   62.0, -999.0
15-05-2022, 00:10:09,    185,    0.0,   13.2,   0.00,   0.00, 1015.0,   62.0, -999.0
15-05-2022, 00:10:19,    185,    0.0,   13.2,   0.00,   0.00, 1015.1,   62.0, -999.0
15-05-2022, 00:10:29,    185,    0.0,   13.1,   0.00,   0.00, 1015.1,   62.0, -999.0
15-05-2022, 00:10:38,    185,    0.0,   13.1,   0.00,   0.00, 1015.0,   62.2, -999.0
15-05-2022, 00:10:49,    185,    0.0,   13.1,   0.00,   0.00, 1015.0,   62.1, -999.0
15-05-2022, 00:10:59,    185,    0.0,   13.2,   0.00,   0.00, 1015.1,   62.1, -999.0
15-05-2022, 00:11:08,    185,    0.0,   13.1,   0.00,   0.00, 1015.0,   62.0, -999.0
15-05-2022, 00:11:18,    185,    0.0,   13.1,   0.00,   0.00, 1015.1,   62.0, -999.0
15-05-2022, 00:11:28,    185,    0.0,   13.1,   0.00,   0.00, 1015.0,   62.0, -999.0
15-05-2022, 00:11:38,    186,    0.0,   13.1,   0.00,   0.00, 1015.0,   62.0, -999.0
15-05-2022, 00:11:48,    185,    0.0,   13.1,   0.00,   0.00, 1015.0,   62.0, -999.0
15-05-2022, 00:11:58,    185,    0.0,   13.1,   0.00,   0.00, 1015.0,   61.9, -999.0
15-05-2022, 00:12:08,    186,    0.0,   13.1,   0.00,   0.00, 1015.0,   62.1, -999.0
15-05-2022, 00:12:18,    185,    0.0,   13.2,   0.00,   0.00, 1015.0,   62.3, -999.0
15-05-2022, 00:12:28,    185,    0.0,   13.2,   0.00,   0.00, 1015.0,   62.3, -999.0
15-05-2022, 00:12:38,    185,    0.0,   13.3,   0.00,   0.00, 1015.0,   62.4, -999.0
15-05-2022, 00:12:48,    185,    0.0,   13.2,   0.00,   0.00, 1015.0,   62.4, -999.0
15-05-2022, 00:12:58,    185,    0.0,   13.3,   0.00,   0.00, 1015.0,   62.4, -999.0
15-05-2022, 00:13:08,    185,    0.0,   13.3,   0.00,   0.00, 1015.0,   62.3, -999.0
15-05-2022, 00:13:18,    185,    0.0,   13.3,   0.00,   0.00, 1015.0,   62.4, -999.0
15-05-2022, 00:13:28,    186,    0.0,   13.3,   0.00,   0.00, 1015.1,   62.3, -999.0
15-05-2022, 00:13:38,    185,    0.0,   13.4,   0.00,   0.00, 1015.0,   62.3, -999.0
15-05-2022, 00:13:47,    185,    0.0,   13.3,   0.00,   0.00, 1015.0,   62.3, -999.0
15-05-2022, 00:13:58,    185,    0.0,   13.3,   0.00,   0.00, 1015.0,   62.1, -999.0
15-05-2022, 00:14:07,    185,    0.0,   13.3,   0.00,   0.00, 1015.0,   62.2, -999.0
15-05-2022, 00:14:17,    185,    0.0,   13.4,   0.00,   0.00, 1015.0,   62.0, -999.0
15-05-2022, 00:14:28,    185,    0.0,   13.4,   0.00,   0.00, 1015.0,   62.1, -999.0
15-05-2022, 00:14:37,    185,    0.0,   13.4,   0.00,   0.00, 1015.0,   61.9, -999.0
15-05-2022, 00:14:47,    185,    0.0,   13.4,   0.00,   0.00, 1015.0,   61.9, -999.0
15-05-2022, 00:14:57,    185,    0.0,   13.4,   0.00,   0.00, 1015.0,   61.7, -999.0
15-05-2022, 00:15:07,    185,    0.0,   13.5,   0.00,   0.00, 1015.1,   61.8, -999.0
15-05-2022, 00:15:17,    185,    0.0,   13.5,   0.00,   0.00, 1015.0,   61.8, -999.0
15-05-2022, 00:15:27,    185,    0.0,   13.4,   0.00,   0.00, 1015.1,   62.0, -999.0
15-05-2022, 00:15:37,    185,    0.0,   13.4,   0.00,   0.00, 1015.1,   62.0, -999.0
15-05-2022, 00:15:47,    186,    0.0,   13.3,   0.00,   0.00, 1015.0,   62.0, -999.0
15-05-2022, 00:15:57,    185,    0.0,   13.2,   0.00,   0.00, 1015.1,   62.3, -999.0
15-05-2022, 00:16:07,    185,    0.0,   13.2,   0.00,   0.00, 1015.1,   62.5, -999.0
15-05-2022, 00:16:17,    185,    0.0,   13.1,   0.00,   0.00, 1015.0,   62.6, -999.0
15-05-2022, 00:16:27,    185,    0.0,   13.0,   0.00,   0.00, 1015.1,   62.7, -999.0
15-05-2022, 00:16:37,    185,    0.0,   13.0,   0.00,   0.00, 1015.1,   62.8, -999.0
15-05-2022, 00:16:46,    185,    0.0,   13.0,   0.00,   0.00, 1015.1,   62.9, -999.0
15-05-2022, 00:16:57,    185,    0.0,   13.0,   0.00,   0.00, 1015.1,   63.1, -999.0
15-05-2022, 00:17:07,    185,    0.0,   13.0,   0.00,   0.00, 1015.0,   63.1, -999.0
15-05-2022, 00:17:16,    185,    0.0,   13.0,   0.00,   0.00, 1015.1,   63.2, -999.0
15-05-2022, 00:17:26,    185,    0.0,   13.0,   0.00,   0.00, 1015.1,   63.3, -999.0
15-05-2022, 00:17:37,    185,    0.0,   13.0,   0.00,   0.00, 1015.1,   63.3, -999.0
15-05-2022, 00:17:46,    185,    0.0,   12.9,   0.00,   0.00, 1015.0,   63.4, -999.0
15-05-2022, 00:17:56,    186,    0.0,   12.8,   0.00,   0.00, 1015.1,   63.5, -999.0
15-05-2022, 00:18:06,    185,    0.0,   12.9,   0.00,   0.00, 1015.1,   63.5, -999.0
15-05-2022, 00:18:16,    185,    0.0,   12.8,   0.00,   0.00, 1015.0,   63.6, -999.0
15-05-2022, 00:18:26,    185,    0.0,   12.8,   0.00,   0.00, 1015.0,   63.8, -999.0
15-05-2022, 00:18:36,    185,    0.0,   12.7,   0.00,   0.00, 1015.0,   63.9, -999.0
15-05-2022, 00:18:46,    185,    0.0,   12.7,   0.00,   0.00, 1015.0,   64.0, -999.0
15-05-2022, 00:18:56,    185,    0.0,   12.7,   0.00,   0.00, 1015.1,   64.1, -999.0
15-05-2022, 00:19:06,    185,    0.0,   12.7,   0.00,   0.00, 1015.1,   64.2, -999.0
15-05-2022, 00:19:16,    185,    0.0,   12.7,   0.00,   0.00, 1015.1,   64.3, -999.0
15-05-2022, 00:19:26,    185,    0.0,   12.6,   0.00,   0.00, 1015.1,   64.4, -999.0
15-05-2022, 00:19:36,    185,    0.0,   12.7,   0.00,   0.00, 1015.1,   64.4, -999.0
15-05-2022, 00:19:46,    185,    0.0,   12.6,   0.00,   0.00, 1015.1,   64.6, -999.0
15-05-2022, 00:19:55,    185,    0.0,   12.6,   0.00,   0.00, 1015.1,   64.6, -999.0
15-05-2022, 00:20:06,    185,    0.0,   12.6,   0.00,   0.00, 1015.1,   64.6, -999.0
15-05-2022, 00:20:16,    185,    0.0,   12.6,   0.00,   0.00, 1015.1,   64.5, -999.0
15-05-2022, 00:20:25,    184,    0.0,   12.6,   0.00,   0.00, 1015.1,   64.6, -999.0
15-05-2022, 00:20:35,    185,    0.0,   12.6,   0.00,   0.00, 1015.1,   64.6, -999.0
15-05-2022, 00:20:45,    185,    0.0,   12.6,   0.00,   0.00, 1015.1,   64.8, -999.0
15-05-2022, 00:20:55,    185,    0.0,   12.6,   0.00,   0.00, 1015.1,   64.8, -999.0
15-05-2022, 00:21:05,    185,    0.0,   12.6,   0.00,   0.00, 1015.1,   64.7, -999.0
15-05-2022, 00:21:15,    185,    0.0,   12.4,   0.00,   0.00, 1015.1,   64.8, -999.0
15-05-2022, 00:21:25,    185,    0.0,   12.6,   0.00,   0.00, 1015.1,   64.9, -999.0
15-05-2022, 00:21:35,    185,    0.0,   12.5,   0.00,   0.00, 1015.1,   65.0, -999.0
15-05-2022, 00:21:45,    185,    0.0,   12.5,   0.00,   0.00, 1015.1,   64.9, -999.0
15-05-2022, 00:21:55,    185,    0.0,   12.5,   0.00,   0.00, 1015.1,   65.0, -999.0
15-05-2022, 00:22:05,    185,    0.0,   12.5,   0.00,   0.00, 1015.1,   65.2, -999.0
15-05-2022, 00:22:15,    185,    0.0,   12.5,   0.00,   0.00, 1015.1,   65.2, -999.0
15-05-2022, 00:22:25,    185,    0.0,   12.5,   0.00,   0.00, 1015.1,   65.1, -999.0
15-05-2022, 00:22:35,    186,    0.0,   12.5,   0.00,   0.00, 1015.1,   65.1, -999.0
15-05-2022, 00:22:45,    185,    0.0,   12.5,   0.00,   0.00, 1015.1,   65.0, -999.0
15-05-2022, 00:22:54,    185,    0.0,   12.5,   0.00,   0.00, 1015.1,   65.1, -999.0
15-05-2022, 00:23:04,    185,    0.0,   12.6,   0.00,   0.00, 1015.1,   65.0, -999.0
15-05-2022, 00:23:15,    185,    0.0,   12.6,   0.00,   0.00, 1015.1,   65.1, -999.0
15-05-2022, 00:23:24,    186,    0.0,   12.6,   0.00,   0.00, 1015.1,   64.8, -999.0
15-05-2022, 00:23:34,    185,    0.0,   12.6,   0.00,   0.00, 1015.1,   64.8, -999.0
15-05-2022, 00:23:45,    185,    0.0,   12.6,   0.00,   0.00, 1015.1,   64.9, -999.0
15-05-2022, 00:23:54,    185,    0.0,   12.6,   0.00,   0.00, 1015.1,   64.8, -999.0
15-05-2022, 00:24:04,    185,    0.0,   12.6,   0.00,   0.00, 1015.1,   64.7, -999.0
15-05-2022, 00:24:14,    185,    0.0,   12.6,   0.00,   0.00, 1015.1,   64.7, -999.0
15-05-2022, 00:24:24,    185,    0.0,   12.6,   0.00,   0.00, 1015.1,   64.4, -999.0
15-05-2022, 00:24:34,    185,    0.0,   12.6,   0.00,   0.00, 1015.1,   64.2, -999.0
15-05-2022, 00:24:44,    185,    0.0,   12.7,   0.00,   0.00, 1015.1,   64.2, -999.0
15-05-2022, 00:24:54,    185,    0.0,   12.7,   0.00,   0.00, 1015.1,   64.0, -999.0
15-05-2022, 00:25:04,    185,    0.0,   12.7,   0.00,   0.00, 1015.1,   63.9, -999.0
15-05-2022, 00:25:14,    185,    0.0,   12.7,   0.00,   0.00, 1015.1,   63.6, -999.0
15-05-2022, 00:25:24,    185,    0.0,   12.8,   0.00,   0.00, 1015.1,   63.7, -999.0
15-05-2022, 00:25:33,    185,    0.0,   12.8,   0.00,   0.00, 1015.2,   63.7, -999.0
15-05-2022, 00:25:44,    185,    0.0,   12.7,   0.00,   0.00, 1015.1,   63.6, -999.0
15-05-2022, 00:25:54,    185,    0.0,   12.8,   0.00,   0.00, 1015.1,   63.6, -999.0
15-05-2022, 00:26:03,    185,    0.0,   12.7,   0.00,   0.00, 1015.2,   63.5, -999.0
15-05-2022, 00:26:15,    185,    0.0,   12.7,   0.00,   0.00, 1015.1,   63.6, -999.0
15-05-2022, 00:26:24,    185,    0.0,   12.8,   0.00,   0.00, 1015.1,   63.6, -999.0
15-05-2022, 00:26:33,    185,    0.0,   12.8,   0.00,   0.00, 1015.2,   63.6, -999.0
15-05-2022, 00:26:43,    185,    0.0,   12.8,   0.00,   0.00, 1015.2,   63.5, -999.0
15-05-2022, 00:26:53,    185,    0.0,   12.8,   0.00,   0.00, 1015.1,   63.6, -999.0
15-05-2022, 00:27:03,    186,    0.0,   12.8,   0.00,   0.00, 1015.2,   63.6, -999.0
15-05-2022, 00:27:13,    185,    0.0,   12.9,   0.00,   0.00, 1015.2,   63.4, -999.0
15-05-2022, 00:27:23,    185,    0.0,   12.8,   0.00,   0.00, 1015.2,   63.4, -999.0
15-05-2022, 00:27:33,    185,    0.0,   12.8,   0.00,   0.00, 1015.2,   63.3, -999.0
15-05-2022, 00:27:43,    185,    0.0,   12.8,   0.00,   0.00, 1015.2,   63.4, -999.0
15-05-2022, 00:27:53,    185,    0.0,   12.9,   0.00,   0.00, 1015.2,   63.4, -999.0
15-05-2022, 00:28:03,    185,    0.0,   12.9,   0.00,   0.00, 1015.2,   63.3, -999.0
15-05-2022, 00:28:13,    185,    0.0,   12.9,   0.00,   0.00, 1015.2,   63.4, -999.0
15-05-2022, 00:28:23,    185,    0.0,   12.9,   0.00,   0.00, 1015.2,   63.4, -999.0
15-05-2022, 00:28:33,    185,    0.0,   12.8,   0.00,   0.00, 1015.2,   63.2, -999.0
15-05-2022, 00:28:43,    185,    0.0,   12.8,   0.00,   0.00, 1015.1,   63.3, -999.0
15-05-2022, 00:28:53,    185,    0.0,   12.9,   0.00,   0.00, 1015.1,   63.2, -999.0
15-05-2022, 00:29:03,    185,    0.0,   12.9,   0.00,   0.00, 1015.2,   63.2, -999.0
15-05-2022, 00:29:12,    185,    0.0,   12.9,   0.00,   0.00, 1015.2,   62.7, -999.0
15-05-2022, 00:29:23,    185,    0.0,   12.8,   0.00,   0.00, 1015.2,   62.3, -999.0
15-05-2022, 00:29:32,    185,    0.0,   12.8,   0.00,   0.00, 1015.2,   62.1, -999.0
15-05-2022, 00:29:42,    185,    0.0,   12.9,   0.00,   0.00, 1015.2,   62.0, -999.0
15-05-2022, 00:29:53,    185,    0.0,   12.9,   0.00,   0.00, 1015.2,   62.4, -999.0
15-05-2022, 00:30:02,    185,    0.0,   12.9,   0.00,   0.00, 1015.2,   62.4, -999.0
15-05-2022, 00:30:12,    185,    0.0,   13.0,   0.00,   0.00, 1015.2,   62.4, -999.0
15-05-2022, 00:30:22,    185,    0.0,   13.0,   0.00,   0.00, 1015.2,   62.4, -999.0
15-05-2022, 00:30:32,    186,    0.0,   12.9,   0.00,   0.00, 1015.2,   62.3, -999.0
15-05-2022, 00:30:42,    185,    0.0,   12.9,   0.00,   0.00, 1015.2,   62.2, -999.0
15-05-2022, 00:30:52,    185,    0.0,   13.0,   0.00,   0.00, 1015.2,   62.2, -999.0
15-05-2022, 00:31:02,    185,    0.0,   13.0,   0.00,   0.00, 1015.2,   62.1, -999.0
15-05-2022, 00:31:12,    185,    0.0,   13.0,   0.00,   0.00, 1015.2,   62.2, -999.0
15-05-2022, 00:31:22,    185,    0.0,   13.0,   0.00,   0.00, 1015.2,   62.3, -999.0
15-05-2022, 00:31:32,    185,    0.0,   13.0,   0.00,   0.00, 1015.2,   62.2, -999.0
15-05-2022, 00:31:41,    185,    0.0,   13.0,   0.00,   0.00, 1015.2,   62.3, -999.0
15-05-2022, 00:31:52,    185,    0.0,   13.0,   0.00,   0.00, 1015.1,   62.3, -999.0
15-05-2022, 00:32:02,    186,    0.0,   13.0,   0.00,   0.00, 1015.2,   62.2, -999.0
15-05-2022, 00:32:11,    185,    0.0,   13.1,   0.00,   0.00, 1015.2,   62.3, -999.0
15-05-2022, 00:32:21,    185,    0.0,   13.1,   0.00,   0.00, 1015.2,   62.3, -999.0
15-05-2022, 00:32:32,    185,    0.0,   13.1,   0.00,   0.00, 1015.2,   62.2, -999.0
15-05-2022, 00:32:41,    185,    0.0,   13.1,   0.00,   0.00, 1015.1,   62.2, -999.0
15-05-2022, 00:32:51,    185,    0.0,   13.1,   0.00,   0.00, 1015.1,   62.0, -999.0
15-05-2022, 00:33:02,    185,    0.0,   13.1,   0.00,   0.00, 1015.1,   62.2, -999.0
15-05-2022, 00:33:11,    185,    0.0,   13.1,   0.00,   0.00, 1015.1,   62.2, -999.0
15-05-2022, 00:33:21,    185,    0.0,   13.1,   0.00,   0.00, 1015.1,   62.0, -999.0
15-05-2022, 00:33:31,    185,    0.0,   13.1,   0.00,   0.00, 1015.1,   62.2, -999.0
15-05-2022, 00:33:41,    185,    0.0,   13.0,   0.00,   0.00, 1015.1,   62.2, -999.0
15-05-2022, 00:33:51,    207,    0.0,   13.0,   0.00,   0.00, 1015.1,   62.4, -999.0
15-05-2022, 00:34:01,    207,    0.0,   13.0,   0.00,   0.00, 1015.1,   63.2, -999.0
15-05-2022, 00:34:11,    207,    0.0,   12.8,   0.00,   0.00, 1015.1,   63.9, -999.0
15-05-2022, 00:34:21,    211,    0.0,   12.8,   0.00,   0.00, 1015.1,   64.5, -999.0
15-05-2022, 00:34:31,    214,    0.0,   12.7,   0.00,   0.00, 1015.1,   64.8, -999.0
15-05-2022, 00:34:41,    251,    0.0,   12.6,   0.00,   0.00, 1015.1,   65.2, -999.0
15-05-2022, 00:34:50,    251,    0.0,   12.5,   0.00,   0.00, 1015.1,   65.6, -999.0
15-05-2022, 00:35:01,    251,    0.0,   12.5,   0.00,   0.00, 1015.1,   65.8, -999.0
15-05-2022, 00:35:11,    252,    0.0,   12.4,   0.00,   0.00, 1015.1,   66.2, -999.0
15-05-2022, 00:35:20,    252,    0.0,   12.4,   0.00,   0.00, 1015.1,   66.2, -999.0
15-05-2022, 00:35:31,    252,    0.0,   12.4,   0.00,   0.00, 1015.1,   66.4, -999.0
15-05-2022, 00:35:41,    251,    0.0,   12.4,   0.00,   0.00, 1015.1,   66.5, -999.0
15-05-2022, 00:35:50,    252,    0.0,   12.4,   0.00,   0.00, 1015.1,   66.5, -999.0
15-05-2022, 00:36:00,    252,    0.0,   12.4,   0.00,   0.00, 1015.0,   66.7, -999.0
15-05-2022, 00:36:10,    252,    0.0,   12.4,   0.00,   0.00, 1015.1,   66.8, -999.0
15-05-2022, 00:36:20,    252,    0.0,   12.3,   0.00,   0.00, 1015.1,   66.8, -999.0
15-05-2022, 00:36:30,    251,    0.0,   12.3,   0.00,   0.00, 1015.1,   67.0, -999.0
15-05-2022, 00:36:40,    251,    0.0,   12.3,   0.00,   0.00, 1015.1,   67.2, -999.0
15-05-2022, 00:36:50,    252,    0.0,   12.3,   0.00,   0.00, 1015.1,   67.1, -999.0
15-05-2022, 00:37:00,    251,    0.0,   12.4,   0.00,   0.00, 1015.1,   67.1, -999.0
15-05-2022, 00:37:10,    251,    0.0,   12.3,   0.00,   0.00, 1015.1,   67.1, -999.0
15-05-2022, 00:37:20,    251,    0.0,   12.4,   0.00,   0.00, 1015.1,   67.2, -999.0
15-05-2022, 00:37:30,    251,    0.0,   12.4,   0.00,   0.00, 1015.1,   67.2, -999.0
15-05-2022, 00:37:40,    251,    0.0,   12.3,   0.00,   0.00, 1015.1,   67.1, -999.0
15-05-2022, 00:37:50,    251,    0.0,   12.3,   0.00,   0.00, 1015.1,   67.4, -999.0
15-05-2022, 00:38:00,    252,    0.0,   12.3,   0.00,   0.00, 1015.1,   67.4, -999.0
15-05-2022, 00:38:10,    252,    0.0,   12.3,   0.00,   0.00, 1015.1,   67.5, -999.0
15-05-2022, 00:38:19,    252,    0.0,   12.2,   0.00,   0.00, 1015.1,   67.6, -999.0
15-05-2022, 00:38:29,    252,    0.0,   12.3,   0.00,   0.00, 1015.1,   67.5, -999.0
15-05-2022, 00:38:40,    252,    0.0,   12.3,   0.00,   0.00, 1015.1,   67.6, -999.0
15-05-2022, 00:38:49,    252,    0.0,   12.2,   0.00,   0.00, 1015.1,   67.8, -999.0
15-05-2022, 00:38:59,    252,    0.0,   12.2,   0.00,   0.00, 1015.1,   67.8, -999.0
15-05-2022, 00:39:09,    252,    0.0,   12.2,   0.00,   0.00, 1015.1,   67.9, -999.0
15-05-2022, 00:39:19,    252,    0.0,   12.1,   0.00,   0.00, 1015.1,   67.9, -999.0
15-05-2022, 00:39:29,    252,    0.0,   12.0,   0.00,   0.00, 1015.0,   68.1, -999.0
15-05-2022, 00:39:39,    253,    0.0,   12.2,   0.00,   0.00, 1015.1,   68.2, -999.0
15-05-2022, 00:39:49,    252,    0.0,   12.1,   0.00,   0.00, 1015.1,   68.3, -999.0
15-05-2022, 00:39:59,    252,    0.0,   12.0,   0.00,   0.00, 1015.1,   68.3, -999.0
15-05-2022, 00:40:09,    252,    0.0,   12.2,   0.00,   0.00, 1015.1,   68.5, -999.0
15-05-2022, 00:40:19,    251,    0.0,   12.1,   0.00,   0.00, 1015.1,   68.5, -999.0
15-05-2022, 00:40:29,    252,    0.0,   12.1,   0.00,   0.00, 1015.1,   68.6, -999.0
15-05-2022, 00:40:39,    251,    0.0,   11.9,   0.00,   0.00, 1015.1,   68.8, -999.0
15-05-2022, 00:40:49,    252,    0.0,   12.1,   0.00,   0.00, 1015.1,   68.7, -999.0
15-05-2022, 00:40:58,    252,    0.0,   12.0,   0.00,   0.00, 1015.1,   68.8, -999.0
15-05-2022, 00:41:09,    251,    0.0,   11.9,   0.00,   0.00, 1015.1,   69.0, -999.0
15-05-2022, 00:41:19,    252,    0.0,   12.0,   0.00,   0.00, 1015.1,   69.1, -999.0
15-05-2022, 00:41:28,    252,    0.0,   12.0,   0.00,   0.00, 1015.1,   68.9, -999.0
15-05-2022, 00:41:38,    252,    0.0,   11.9,   0.00,   0.00, 1015.1,   69.1, -999.0
15-05-2022, 00:41:49,    252,    0.0,   12.0,   0.00,   0.00, 1015.0,   69.3, -999.0
15-05-2022, 00:41:58,    251,    0.0,   12.0,   0.00,   0.00, 1015.1,   69.4, -999.0
15-05-2022, 00:42:08,    252,    0.0,   12.0,   0.00,   0.00, 1015.1,   69.4, -999.0
15-05-2022, 00:42:18,    252,    0.0,   12.0,   0.00,   0.00, 1015.1,   69.3, -999.0
15-05-2022, 00:42:28,    252,    0.0,   12.0,   0.00,   0.00, 1015.1,   69.3, -999.0
15-05-2022, 00:42:38,    252,    0.0,   12.0,   0.00,   0.00, 1015.1,   69.3, -999.0
15-05-2022, 00:42:48,    251,    0.0,   12.0,   0.00,   0.00, 1015.1,   69.3, -999.0
15-05-2022, 00:42:58,    252,    0.0,   12.0,   0.00,   0.00, 1015.1,   69.2, -999.0
15-05-2022, 00:43:08,    252,    0.0,   12.0,   0.00,   0.00, 1015.1,   69.3, -999.0
15-05-2022, 00:43:18,    252,    0.0,   12.0,   0.00,   0.00, 1015.1,   69.4, -999.0
15-05-2022, 00:43:28,    252,    0.0,   12.1,   0.00,   0.00, 1015.1,   69.3, -999.0
15-05-2022, 00:43:38,    252,    0.0,   12.0,   0.00,   0.00, 1015.1,   69.2, -999.0
15-05-2022, 00:43:49,    251,    0.0,   12.1,   0.00,   0.00, 1015.1,   69.3, -999.0
15-05-2022, 00:43:58,    252,    0.0,   12.0,   0.00,   0.00, 1015.1,   69.4, -999.0
15-05-2022, 00:44:07,    252,    0.0,   12.0,   0.00,   0.00, 1015.1,   69.2, -999.0
15-05-2022, 00:44:18,    251,    0.0,   12.0,   0.00,   0.00, 1015.1,   69.4, -999.0
15-05-2022, 00:44:28,    252,    0.0,   12.0,   0.00,   0.00, 1015.1,   69.3, -999.0
15-05-2022, 00:44:37,    252,    0.0,   12.1,   0.00,   0.00, 1015.1,   69.3, -999.0
15-05-2022, 00:44:48,    252,    0.0,   12.1,   0.00,   0.00, 1015.1,   69.3, -999.0
15-05-2022, 00:44:57,    252,    0.0,   12.0,   0.00,   0.00, 1015.1,   69.4, -999.0
15-05-2022, 00:45:07,    251,    0.0,   12.1,   0.00,   0.00, 1015.1,   69.3, -999.0
15-05-2022, 00:45:17,    252,    0.0,   12.1,   0.00,   0.00, 1015.0,   69.3, -999.0
15-05-2022, 00:45:27,    252,    0.0,   12.0,   0.00,   0.00, 1015.1,   69.3, -999.0
15-05-2022, 00:45:37,    252,    0.0,   12.1,   0.00,   0.00, 1015.0,   69.4, -999.0
15-05-2022, 00:45:47,    252,    0.0,   12.1,   0.00,   0.00, 1015.1,   69.3, -999.0
15-05-2022, 00:45:57,    252,    0.0,   12.1,   0.00,   0.00, 1015.1,   69.4, -999.0
15-05-2022, 00:46:07,    252,    0.0,   12.0,   0.00,   0.00, 1015.0,   69.3, -999.0
15-05-2022, 00:46:17,    251,    0.0,   12.1,   0.00,   0.00, 1015.1,   69.4, -999.0
15-05-2022, 00:46:27,    253,    0.0,   12.1,   0.00,   0.00, 1015.1,   69.4, -999.0
15-05-2022, 00:46:37,    252,    0.0,   12.1,   0.00,   0.00, 1015.0,   69.5, -999.0